[[{"header":{"parameterUnit":"m.s-1","parameterCategory":1,"la1":30.2991,"la2":30.254,"lo1":-89.0895,"lo2":-89.0444,"dy":0.0017,"dx":0.0017,"nx":28,"ny":28,"refTime":"2024-04-01T09:00:00:Z","depth":0,"parameterNumber":2,"parameterNumberName":"U-component_of_WINDS"},"data":[0,0,0,0,0,0,0,0,0,0,0,0,0,0,0,0,0,0,0,0,0,0,0,0,0,0,0,0,0,0,0,0,0,0,0,0,0,0,0,0,0,0,0,0,0,0,0,0,0,0,0,0,0,0,0,0,0,0,-0.6389,-0.6389,0,-0.6365,-0.6365,-0.6364,-0.6356,-0.6356,-0.6356,-0.6356,-0.6332,-0.6331,-0.633,0,0,0,0,0,0,0,0,0,0,0,0,0,-0.6429,-0.6429,-0.6389,-0.6389,-0.6389,-0.6365,-0.6365,-0.6364,-0.6356,-0.6356,-0.6356,-0.6356,-0.6332,-0.6331,-0.633,0,0,0,0,0,0,0,0,0,0,0,0,0,-0.6409,-0.6429,-0.639,-0.6382,-0.6381,-0.6365,-0.6365,-0.6364,-0.6356,-0.6356,-0.6356,-0.6356,-0.6332,-0.6331,-0.633,-0.6321,0,0,-0.6327,-0.6326,0,0,0,0,0,0,0,0,-0.641,-0.6408,-0.6383,-0.6382,-0.6381,-0.6363,-0.637,-0.635,-0.6356,-0.6365,-0.6356,-0.6356,-0.6342,-0.634,-0.6336,-0.632,-0.6319,-0.6327,-0.6326,-0.6326,-0.6325,0,0,0,0,0,0,0,-0.6412,-0.6409,-0.638,-0.6383,-0.6381,-0.638,-0.6377,-0.6366,-0.6353,-0.6364,-0.6364,-0.6361,-0.6342,-0.6337,-0.6335,-0.6319,-0.6327,-0.6326,-0.6325,-0.6325,-0.6294,-0.6294,0,0,0,0,0,0,-0.6414,-0.641,-0.6381,-0.6379,-0.6396,-0.6379,-0.6376,-0.6369,-0.6353,-0.6351,-0.6361,-0.636,-0.6338,-0.6336,-0.6334,-0.6322,-0.6326,-0.6325,-0.6324,-0.6294,-0.6294,-0.6294,0,0,0,0,0,0,-0.6415,-0.6412,-0.6382,-0.6394,-0.639,-0.6378,-0.637,-0.6368,-0.6363,-0.6351,-0.6348,-0.6358,-0.6338,-0.6336,-0.6324,-0.6321,-0.6324,-0.6323,-0.6295,-0.6294,-0.6294,-0.6298,0,0,0,0,0,0,-0.6417,-0.6412,-0.6409,-0.6394,-0.639,-0.6372,-0.637,-0.6368,-0.6361,-0.6361,-0.6347,-0.6345,-0.6338,-0.6326,-0.6323,-0.632,-0.6322,-0.6295,-0.6294,-0.6294,-0.6299,-0.6298,-0.6298,0,0,0,0,0,-0.6418,-0.6411,-0.6408,-0.6405,-0.6385,-0.6372,-0.6369,-0.6361,-0.6361,-0.6357,-0.6349,-0.6346,-0.6322,-0.6325,-0.6322,-0.6318,-0.6295,-0.6295,-0.6294,-0.6299,-0.6298,-0.6298,0,0,0,0,0,0,-0.6426,-0.6409,-0.6406,-0.6394,-0.6384,-0.637,-0.6365,-0.6361,-0.6352,-0.6352,-0.6342,-0.6339,-0.6329,-0.6322,-0.6326,-0.6308,-0.6308,-0.6307,-0.6313,-0.6312,-0.6312,-0.6314,-0.6322,0,0,0,0,0,-0.6426,-0.6417,-0.6403,-0.6394,-0.6389,-0.6378,-0.6372,-0.6367,-0.6356,-0.6352,-0.6343,-0.6334,-0.6324,-0.6318,-0.6309,-0.6298,-0.6295,-0.6294,-0.6293,-0.6293,-0.6292,-0.6286,-0.6285,-0.6293,-0.6293,-0.6293,0,0,-0.6427,-0.6416,-0.6411,-0.6395,-0.6387,-0.6377,-0.6375,-0.6365,-0.6358,-0.6351,-0.6339,-0.6333,-0.6321,-0.631,-0.6305,-0.6304,-0.629,-0.6293,-0.6293,-0.6292,-0.6285,-0.6285,-0.6284,-0.6292,-0.6293,-0.6293,0,0,-0.6423,-0.6414,-0.6405,-0.6397,-0.6385,-0.6377,-0.6375,-0.6362,-0.6357,-0.6345,-0.6339,-0.6331,-0.6315,-0.6307,-0.6301,-0.6294,-0.629,-0.6291,-0.629,-0.6284,-0.6283,-0.6283,-0.628,-0.6279,-0.629,-0.629,-0.629,0,-0.6425,-0.641,-0.6402,-0.6392,-0.6385,-0.6378,-0.6369,-0.6361,-0.6347,-0.6342,-0.6342,-0.6321,-0.6313,-0.63,-0.6298,-0.6293,-0.6291,-0.6292,-0.6284,-0.6283,-0.6283,-0.628,-0.6279,-0.629,-0.629,-0.629,-0.629,0,-0.6414,-0.6404,-0.6398,-0.6383,-0.6376,-0.6367,-0.6357,-0.635,-0.6346,-0.6338,-0.6327,-0.6317,-0.6305,-0.6301,-0.6297,-0.6287,-0.6287,-0.6286,-0.6286,-0.6282,-0.6279,-0.6278,-0.6291,-0.6291,-0.6291,-0.629,0,0,-0.6414,-0.6394,-0.6392,-0.6385,-0.6371,-0.6363,-0.6354,-0.6342,-0.6336,-0.6326,-0.6318,-0.6304,-0.6303,-0.6296,-0.629,-0.6285,-0.6279,-0.6284,-0.6283,-0.6283,-0.6268,-0.6269,-0.6268,-0.6277,-0.6277,-0.6277,-0.6269,0,-0.6408,-0.639,-0.6382,-0.6368,-0.6359,-0.6352,-0.6343,-0.6334,-0.6327,-0.6318,-0.6311,-0.6301,-0.6299,-0.6295,-0.6289,-0.6281,-0.6276,-0.6282,-0.6269,-0.6269,-0.6272,-0.6266,-0.6267,-0.626,-0.6268,-0.6267,-0.6267,0,-0.6399,-0.6388,-0.6373,-0.6359,-0.6355,-0.6348,-0.6336,-0.6327,-0.6316,-0.6312,-0.6304,-0.6298,-0.6288,-0.6289,-0.6275,-0.6279,-0.6274,-0.6269,-0.6268,-0.6267,-0.6268,-0.6264,-0.6258,-0.6257,-0.6266,-0.6266,-0.6266,0,-0.64,-0.6382,-0.6371,-0.6365,-0.6349,-0.6344,-0.6337,-0.6326,-0.6319,-0.6309,-0.6304,-0.6293,-0.6287,-0.6279,-0.6271,-0.6272,-0.6258,-0.6258,-0.6253,-0.6253,-0.625,-0.625,-0.6243,-0.6247,-0.6247,-0.6247,-0.6247,0,-0.6394,-0.6385,-0.6371,-0.6364,-0.6353,-0.6344,-0.6334,-0.6327,-0.6317,-0.6309,-0.6302,-0.6295,-0.6284,-0.6275,-0.6269,-0.6258,-0.6256,-0.6252,-0.625,-0.6252,-0.6252,-0.6248,-0.6248,-0.6247,-0.6247,-0.6247,-0.6247,0,-0.6394,-0.6384,-0.6371,-0.6356,-0.6352,-0.6345,-0.6333,-0.6326,-0.6319,-0.6308,-0.6305,-0.6294,-0.6283,-0.6274,-0.626,-0.6255,-0.6244,-0.6242,-0.6248,-0.6247,-0.6243,-0.6243,-0.6231,-0.6229,-0.6236,-0.6236,-0.6236,0,-0.639,-0.6383,-0.6367,-0.6361,-0.6354,-0.6344,-0.6337,-0.6327,-0.632,-0.6307,-0.6301,-0.629,-0.628,-0.6263,-0.6254,-0.6243,-0.6241,-0.6237,-0.6239,-0.6241,-0.624,-0.624,-0.6239,-0.6237,-0.6237,-0.6237,-0.6237,0,-0.6385,-0.6381,-0.637,-0.6358,-0.6349,-0.6339,-0.6329,-0.6325,-0.6313,-0.6306,-0.6294,-0.6286,-0.6272,-0.626,-0.6248,-0.6242,-0.6237,-0.6237,-0.6235,-0.6237,-0.624,-0.6237,-0.6247,-0.6237,-0.6237,-0.6237,-0.6237,-0.6237,-0.6383,-0.6376,-0.6364,-0.6352,-0.6343,-0.6334,-0.6326,-0.6318,-0.6308,-0.6295,-0.629,-0.6278,-0.6267,-0.6251,-0.6244,-0.6234,-0.6234,-0.6232,-0.6231,-0.6231,-0.623,-0.6241,-0.6232,-0.6232,-0.6232,-0.6232,-0.6232,0,-0.6377,-0.6369,-0.6358,-0.6344,-0.6335,-0.6331,-0.632,-0.6313,-0.6302,-0.6292,-0.6282,-0.6269,-0.6258,-0.6247,-0.6236,-0.623,-0.6228,-0.6228,-0.6228,-0.6226,-0.6232,-0.6234,-0.623,-0.623,-0.623,-0.623,-0.623,-0.623,-0.6373,-0.6361,-0.6355,-0.6338,-0.633,-0.6317,-0.6311,-0.6303,-0.6294,-0.6279,-0.627,-0.6263,-0.6253,-0.624,-0.623,-0.6227,-0.6223,-0.6223,-0.622,-0.6225,-0.6226,-0.6226,-0.6228,-0.6222,-0.6222,-0.6215,-0.6215,-0.6215]},{"header":{"parameterUnit":"m.s-1","parameterCategory":1,"la1":30.2991,"la2":30.254,"lo1":-89.0895,"lo2":-89.0444,"dy":0.0017,"dx":0.0017,"nx":28,"ny":28,"refTime":"2024-04-01T09:00:00:Z","depth":0,"parameterNumber":3,"parameterNumberName":"V-component_of_WINDS"},"data":[0,0,0,0,0,0,0,0,0,0,0,0,0,0,0,0,0,0,0,0,0,0,0,0,0,0,0,0,0,0,0,0,0,0,0,0,0,0,0,0,0,0,0,0,0,0,0,0,0,0,0,0,0,0,0,0,0,0,3.5442,3.5442,0,3.5484,3.5485,3.5485,3.5472,3.5471,3.547,3.547,3.5512,3.5513,3.5515,0,0,0,0,0,0,0,0,0,0,0,0,0,3.5347,3.5349,3.5442,3.5442,3.5443,3.5484,3.5485,3.5485,3.5472,3.5471,3.547,3.5469,3.5511,3.5513,3.5515,0,0,0,0,0,0,0,0,0,0,0,0,0,3.5389,3.535,3.5441,3.5441,3.5442,3.5484,3.5485,3.5485,3.5473,3.5471,3.547,3.5469,3.551,3.5513,3.5516,3.556,0,0,3.5525,3.5526,0,0,0,0,0,0,0,0,3.5386,3.5392,3.5441,3.5441,3.5442,3.5472,3.5467,3.551,3.5473,3.5461,3.547,3.5468,3.5499,3.5503,3.5514,3.5562,3.5564,3.5525,3.5527,3.5528,3.5529,0,0,0,0,0,0,0,3.5384,3.539,3.5458,3.5441,3.5442,3.5438,3.5443,3.5475,3.5487,3.5462,3.5461,3.5466,3.5499,3.5511,3.5515,3.5565,3.5525,3.5527,3.5529,3.553,3.5652,3.5653,0,0,0,0,0,0,3.5381,3.5388,3.5457,3.546,3.541,3.5441,3.5446,3.5463,3.5486,3.5489,3.5467,3.5466,3.5507,3.5511,3.5516,3.557,3.5528,3.5531,3.5532,3.565,3.5652,3.5654,0,0,0,0,0,0,3.5379,3.5387,3.5455,3.5424,3.5432,3.5444,3.5464,3.5465,3.5477,3.5491,3.5493,3.5477,3.5506,3.5512,3.555,3.5571,3.5532,3.5535,3.5649,3.5651,3.5653,3.5679,0,0,0,0,0,0,3.5376,3.5386,3.5404,3.5424,3.5434,3.5489,3.5465,3.5467,3.5482,3.548,3.5501,3.5503,3.5505,3.5545,3.5552,3.5575,3.5537,3.5647,3.565,3.5652,3.5676,3.5681,3.5686,0,0,0,0,0,3.5373,3.5409,3.5405,3.5413,3.5456,3.549,3.5496,3.5498,3.5484,3.5501,3.551,3.5502,3.5568,3.5549,3.5557,3.5581,3.5645,3.5649,3.5652,3.5674,3.568,3.5686,0,0,0,0,0,0,3.539,3.5412,3.5407,3.5451,3.5469,3.5488,3.551,3.5505,3.5527,3.5524,3.5526,3.5531,3.5569,3.5578,3.5558,3.5625,3.5604,3.5609,3.5618,3.5624,3.563,3.5627,3.5539,0,0,0,0,0,3.5399,3.5426,3.5443,3.548,3.5489,3.5498,3.5513,3.5513,3.5532,3.5539,3.5551,3.5568,3.5593,3.5609,3.5632,3.5677,3.5681,3.5697,3.5702,3.5706,3.5711,3.5735,3.5743,3.5665,3.5665,3.5665,0,0,3.5418,3.5433,3.545,3.5484,3.5497,3.5524,3.5504,3.5534,3.5554,3.5543,3.558,3.5589,3.5608,3.565,3.5669,3.5659,3.5733,3.571,3.5713,3.5716,3.574,3.5747,3.5754,3.5667,3.5667,3.5666,0,0,3.5467,3.548,3.5513,3.5528,3.5549,3.5555,3.5562,3.5582,3.5588,3.5625,3.5618,3.5641,3.5683,3.5697,3.571,3.5764,3.5757,3.5771,3.5799,3.5823,3.5829,3.5834,3.5854,3.5861,3.5776,3.5776,3.5776,0,3.5488,3.5529,3.5531,3.5561,3.5576,3.5568,3.5601,3.5614,3.5642,3.5653,3.5641,3.5694,3.5706,3.5751,3.5765,3.5775,3.5784,3.5769,3.5828,3.5833,3.5838,3.5857,3.5865,3.5777,3.5777,3.5777,3.5777,0,3.5553,3.5582,3.5605,3.5633,3.5651,3.5682,3.5688,3.5706,3.5704,3.5711,3.5749,3.5763,3.579,3.58,3.5799,3.5845,3.5838,3.5827,3.5807,3.5847,3.5865,3.5872,3.578,3.5779,3.5779,3.5778,0,0,3.5615,3.5644,3.5652,3.5665,3.5688,3.5709,3.574,3.5766,3.5782,3.58,3.5826,3.5862,3.5852,3.5866,3.5866,3.5887,3.593,3.5874,3.5874,3.5884,3.5982,3.5991,3.6,3.5925,3.5926,3.5927,3.5981,0,3.5667,3.5722,3.5724,3.5774,3.58,3.5793,3.5819,3.5836,3.5843,3.5865,3.5872,3.5898,3.5883,3.5891,3.5912,3.592,3.595,3.5916,3.5949,3.5951,3.5946,3.6009,3.6019,3.6069,3.5988,3.5989,3.599,0,3.5734,3.5756,3.5809,3.5828,3.5839,3.5863,3.5888,3.5909,3.5928,3.5931,3.5947,3.5944,3.5975,3.5953,3.5995,3.5973,3.5986,3.5992,3.5994,3.5998,3.5974,3.6016,3.6084,3.6092,3.6001,3.6,3.5999,0,3.5775,3.5818,3.5855,3.5866,3.5889,3.5906,3.5916,3.5933,3.5949,3.597,3.598,3.6004,3.6017,3.6035,3.6039,3.6022,3.6082,3.6059,3.6086,3.6086,3.61,3.6099,3.6173,3.6106,3.6106,3.6106,3.6106,0,3.5833,3.5866,3.5874,3.5897,3.5933,3.5935,3.5971,3.598,3.5995,3.6019,3.6013,3.6036,3.6038,3.6061,3.6064,3.6099,3.6105,3.6109,3.6109,3.611,3.611,3.612,3.6117,3.6108,3.6108,3.6107,3.6107,0,3.5886,3.5893,3.5933,3.5951,3.5957,3.5983,3.5998,3.602,3.6026,3.6056,3.6064,3.6073,3.61,3.6105,3.6136,3.6138,3.6181,3.6177,3.6175,3.6175,3.6201,3.6199,3.6285,3.6297,3.6222,3.6222,3.6223,0,3.5924,3.5949,3.597,3.5986,3.5997,3.6023,3.6039,3.6041,3.6058,3.6081,3.61,3.6126,3.6148,3.6191,3.6201,3.6225,3.6222,3.6251,3.6226,3.6226,3.6224,3.6223,3.6226,3.6256,3.6257,3.6257,3.6258,0,3.5989,3.5991,3.6015,3.604,3.606,3.6079,3.6098,3.6111,3.6115,3.6135,3.6163,3.6179,3.6212,3.6238,3.6262,3.6272,3.6266,3.6265,3.6273,3.6275,3.6273,3.6275,3.6189,3.6264,3.6263,3.6263,3.6262,3.6262,3.6036,3.6059,3.6077,3.6104,3.6118,3.6135,3.6157,3.6165,3.6189,3.6216,3.6215,3.6246,3.6263,3.6295,3.6306,3.633,3.6321,3.6332,3.6335,3.6338,3.6341,3.6268,3.6334,3.6334,3.6334,3.6334,3.6334,0,3.6103,3.6114,3.6139,3.6165,3.6186,3.6178,3.6198,3.6216,3.6243,3.626,3.6281,3.6313,3.6339,3.635,3.6375,3.6392,3.639,3.6398,3.6398,3.64,3.6347,3.6338,3.64,3.64,3.64,3.64,3.64,3.64,3.614,3.6178,3.6181,3.6226,3.6236,3.6267,3.6279,3.6295,3.6308,3.6345,3.6366,3.6373,3.6387,3.6413,3.6436,3.6439,3.6449,3.6459,3.646,3.6411,3.6404,3.6398,3.639,3.6461,3.6461,3.6512,3.6512,3.6513]}]]